Regional Weather Roundup
Issued by NWS Kansas City/Pleasant Hill, MO

Home | Current Version | Previous Version | Text Only | Print | Product List | Glossary On
Versions: 1 2 3 4 5 6 7 8 9 10 11 12 13 14 15 16 17 18 19 20 21 22 23 24 25 26 27 28 29 30 31 32 33 34 35 36 37 38 39 40 41 42 43 44 45 46 47 48 49 50
119
ASUS43 KEAX 091410
RWREAX

WEATHER ROUNDUP FOR EASTERN KANSAS AND NORTHWEST MISSOURI
NATIONAL WEATHER SERVICE KANSAS CITY/PLEASANT HILL MO
800 AM CST TUE FEB 09 2016

KSZ040-057-103>105-MOZ028-029-037-043-091500-
...KANSAS CITY METROPOLITAN AREA...

CITY           SKY/WX    TMP DP  RH WIND       PRES   REMARKS
K.C. INTL      PTCLDY    16   7  67 N15G32    30.14R WCI   1
K.C. DOWNTOWN  PTCLDY    19   8  62 NW14G21   30.16R WCI   6
LEES SUMMIT    PTCLDY    18   7  62 N20G26    30.14R WCI   2
OLATHE - IXD   CLEAR     20  11  68 N18       30.15R WCI   5
OLATHE - OJC   CLEAR     19   9  65 N16G28    30.14R WCI   4
LAWRENCE       CLEAR     22   8  55 N25G31    30.17R WCI   5

$$

MOZ001>008-011>017-020>025-030>033-038>040-044>046-053-054-091500-
...NORTHERN AND CENTRAL MISSOURI...

CITY           SKY/WX    TMP DP  RH WIND       PRES   REMARKS
ST. JOSEPH     CLEAR     15   5  64 N17G32    30.18R WCI  -1
MOSBY          SUNNY     18   9  68 NW13G22   30.15R WCI   4
WARRENSBURG    FLURRIES  18  10  73 NW20G26   30.13R WCI   1
WHITEMAN AFB   FLURRIES  17   6  64 N21G28    30.09R WCI  -1
CLINTON          N/A     23  14  68 NW25G31   30.10R WCI   7
SEDALIA        CLOUDY    19   9  65 NW20G28   30.09R WCI   3
WARSAW         NOT AVBL
CHILLICOTHE      N/A     17   8  67 NW10      30.12R WCI   5
KIRKSVILLE     FLURRIES  14   5  67 NW16G25   30.04R WCI  -2

$$

MOZ041-047>049-056>058-063>065-088>090-097-091500-
...EASTERN AND SOUTHERN MISSOURI...

CITY           SKY/WX    TMP DP  RH WIND       PRES   REMARKS
ST. LOUIS INTL LGT SNOW  19  12  74 NW15      29.97R WCI   5
SPIRIT OF STL  LGT SNOW  19  12  74 NW16G25   29.98S WCI   4
COLUMBIA       CLOUDY    19   9  65 NW16      30.02R WCI   4
JEFFERSON CITY CLOUDY    20   9  62 NW14G23   30.05R WCI   7
ROLLA          CLOUDY    17   9  70 NW14G21   29.97R WCI   3
OSAGE BEACH    CLOUDY    19   7  58 W13G25    30.04R WCI   7
SPRINGFIELD    CLEAR     26  12  55 NW18G30   30.02R WCI  13
BRANSON        PTCLDY    28  16  59 NW17G38   30.01R WCI  16
JOPLIN         CLEAR     28  19  69 NW14      30.11R WCI  17
WEST PLAINS    CLOUDY    24  11  57 NW18G31   29.97R WCI  10

$$

IAZ060-094-KSZ022-034>040-054-083-096-NEZ052-066-093-091500-
...KANSAS...SOUTHEAST NEBRASKA AND IOWA...

CITY           SKY/WX    TMP DP  RH WIND       PRES   REMARKS
TOPEKA         CLEAR     24   9  52 NW17G24   30.18R WCI  11
MANHATTAN      CLEAR     25   8  48 N10G18    30.24R WCI  15
EMPORIA        CLEAR     27  13  55 NW20G30   30.18R WCI  13
CHANUTE        CLEAR     29  16  58 NW17      30.16R WCI  17
WICHITA        MOCLDY    34  19  54 N16       30.22R WCI  24
OMAHA          PTCLDY    13   6  74 NW17      30.20R WCI  -4
LINCOLN        CLEAR     18   6  59 N21       30.23R WCI   1
FALLS CITY     PTCLDY    18   8  65 N13       30.18R WCI   5
LAMONI         CLOUDY    11   4  73 NW16      30.08R WCI  -6
DES MOINES     MOCLDY    10   2  69 N16       30.10R WCI  -7

$$





USA.gov is the U.S. government's official web portal to all federal, state and local government web resources and services.